Temperature
20 21 21 21 21 21 20 20 20 20 20 20 20 19 19 19 19 19 19 19 19 19 19 19 19 19 19 18 18 18 18 18 18 18 18 18 17 17 17 17 18 18 17
21 21 21 21 21 21 20 20 20 20 20 20 19 19 19 19 19 19 19 19 19 19 19 19 19 19 19 19 19 18 18 18 18 18 18 18 17 17 18 18 18 17 17
21 21 21 21 21 20 20 20 20 20 19 19 19 19 19 19 19 19 19 19 19 19 19 19 19 19 19 19 19 18 18 18 18 18 18 18 17 17 18 17 17 17 17
21 21 21 21 20 20 20 20 20 20 19 19 19 19 19 19 19 19 19 19 19 19 19 20 20 19 19 19 19 18 18 18 18 18 18 18 18 18 18 18 17 17 17
21 21 21 21 20 20 20 20 20 19 19 19 19 19 19 19 19 19 19 19 19 19 19 19 19 19 19 19 19 18 18 18 18 18 18 18 18 18 18 18 17 17 17
21 21 21 21 20 20 20 20 20 20 19 19 19 19 19 19 19 19 19 19 19 19 19 19 19 19 19 19 19 18 18 18 18 18 17 18 18 18 18 18 18 17 17
21 21 21 21 20 20 20 20 20 20 19 19 19 19 19 19 19 19 19 19 19 19 19 19 19 19 19 19 19 18 18 18 18 18 17 17 18 18 18 18 18 18 17
21 21 21 20 20 20 20 20 20 20 20 19 19 19 19 19 19 18 18 18 18 19 19 19 19 19 19 19 19 18 18 18 18 18 17 17 18 18 18 18 18 18 17
21 21 21 20 20 20 20 20 20 20 20 19 19 19 19 18 18 18 18 18 18 18 18 18 18 19 19 19 19 18 18 18 18 18 17 17 18 18 18 18 18 18 18
21 21 20 20 20 20 20 20 20 20 19 19 19 19 18 18 18 18 18 18 18 18 18 18 18 18 18 18 18 18 18 18 18 18 18 17 18 18 18 18 18 18 18
20 20 20 20 20 20 20 19 19 19 19 19 19 18 18 18 18 18 18 18 18 18 18 18 18 18 18 18 18 18 18 18 18 18 18 17 17 18 18 18 18 18 18
20 20 20 20 20 20 19 19 19 19 19 18 18 18 18 18 18 18 18 17 17 18 18 17 17 17 17 18 18 18 18 18 18 18 18 18 17 18 18 18 18 18 18
20 20 19 20 19 19 19 19 19 19 19 18 18 18 18 18 17 17 17 17 17 17 17 17 17 17 17 17 17 17 17 17 18 18 18 17 17 17 18 18 18 18 18
20 20 19 19 19 19 19 19 19 19 18 18 18 18 18 17 17 17 17 17 17 17 17 17 17 17 17 17 17 17 17 17 17 17 17 17 17 17 17 18 18 18 18
20 19 19 19 19 19 19 18 18 18 18 18 18 18 17 17 17 17 17 17 16 16 16 16 16 16 16 16 16 16 16 16 17 17 17 17 17 17 17 17 17 17 17
20 19 19 19 19 19 19 19 18 18 18 18 18 17 17 17 17 17 16 16 16 16 16 16 16 16 16 16 16 16 16 16 16 16 17 17 17 17 17 17 17 17 17
20 20 19 19 19 19 19 19 18 18 18 18 17 17 17 17 17 16 16 16 16 15 15 15 15 15 15 15 16 16 16 16 16 16 16 16 16 17 17 17 17 17 17
20 19 19 19 19 19 19 18 18 18 18 17 17 17 17 16 16 16 16 15 15 15 15 15 15 15 15 15 15 15 15 16 16 16 16 16 16 16 17 17 17 17 17
20 19 19 19 19 19 18 18 18 18 17 17 17 16 16 16 16 16 15 15 15 14 14 14 14 14 14 14 15 15 15 15 16 16 16 16 16 16 16 16 16 16 16
19 19 19 19 18 18 18 18 17 17 17 17 16 16 16 16 16 15 15 15 14 14 14 14 14 14 14 14 14 14 15 15 15 16 16 16 16 16 16 16 16 16 16
19 19 19 18 18 18 18 18 17 17 17 16 16 16 16 15 15 15 15 14 14 13 13 13 13 13 13 13 14 14 15 15 15 15 16 16 16 16 16 16 16 16 16
19 19 18 18 18 18 18 18 17 17 16 16 16 15 15 15 15 14 14 14 13 13 13 13 13 13 13 13 13 13 14 15 15 15 15 15 15 15 15 15 16 16 16
19 19 19 19 18 18 18 17 17 16 16 16 15 15 15 15 14 14 14 13 13 13 13 12 12 12 12 12 12 12 12 13 13 15 15 15 15 15 15 15 15 15 15
19 19 19 19 18 18 18 17 17 16 16 16 15 15 15 14 14 14 13 13 13 13 12 12 12 12 12 12 12 12 12 12 12 13 14 14 14 14 15 15 15 15 15
19 19 19 19 18 18 17 17 17 16 16 15 15 15 14 14 14 13 13 13 13 12 12 12 12 12 12 12 12 12 12 12 12 12 12 14 14 14 14 14 14 15 15
19 19 19 19 18 18 17 17 17 16 16 15 15 14 14 14 13 13 13 13 13 12 12 12 12 11 11 11 11 11 11 11 11 11 11 12 13 14 14 14 14 14 14
Wind_Speed
9 12 20 21 21 21 21 21 21 20 20 19 19 19 19 18 18 17 16 15 15 14 13 13 13 13 13 13 13 13 13 13 13 14 14 15 15 15 17 17 17 17 18
13 16 20 21 21 21 21 21 20 20 19 19 18 18 17 17 16 15 15 14 14 13 13 12 12 12 12 12 12 12 12 12 12 13 13 14 14 15 16 16 16 16 18
16 17 20 21 21 21 21 20 19 19 19 18 17 17 16 15 15 14 13 13 13 12 12 11 11 11 11 11 10 10 10 10 10 11 12 12 12 14 16 16 17 17 17
17 17 19 21 21 21 21 20 19 19 18 17 17 16 15 14 13 13 12 12 12 11 11 10 10 10 9 9 9 9 8 8 7 8 10 9 11 15 16 16 16 16 16
14 17 20 22 21 21 20 20 19 18 18 17 16 15 14 13 12 12 11 11 10 10 9 9 9 8 8 7 7 7 6 6 5 7 9 10 12 15 16 16 15 15 15
13 16 20 22 21 21 20 19 18 18 17 16 15 14 13 12 11 11 10 10 9 9 8 8 7 7 6 5 5 5 5 4 4 6 10 12 13 15 16 16 15 15 14
13 15 19 21 21 20 19 19 18 17 16 15 14 13 12 11 10 10 9 9 9 8 8 7 6 5 4 3 3 2 3 4 4 7 11 12 14 16 16 16 15 14 14
14 13 18 20 20 20 19 18 17 16 15 14 13 12 11 10 9 8 8 8 8 8 7 7 6 5 4 2 1 1 2 3 4 4 9 12 15 17 16 16 15 14 14
14 12 13 17 18 19 18 17 16 15 14 13 12 11 9 9 8 8 7 7 7 7 7 7 6 5 4 4 3 2 3 3 3 2 8 11 16 17 16 16 15 15 14
11 10 10 13 14 15 15 16 15 14 13 12 11 10 9 8 8 8 8 8 8 7 7 7 7 7 6 5 5 5 4 3 1 2 7 11 16 17 16 16 16 15 15
11 9 8 9 11 12 13 13 13 12 11 10 8 8 7 5 5 6 7 8 8 8 7 8 8 7 7 7 6 6 6 4 1 2 7 12 16 17 17 17 17 16 15
12 10 9 8 9 11 10 11 10 9 9 7 6 5 4 3 3 3 5 6 6 6 6 7 7 6 6 6 7 7 6 6 3 3 6 12 16 17 17 18 18 17 17
12 11 9 8 9 8 7 8 7 7 7 6 5 4 4 3 3 3 2 1 2 2 2 2 2 3 4 4 5 5 6 6 4 3 4 11 16 17 17 18 19 19 18
10 9 9 8 7 7 8 7 6 6 6 5 5 5 6 4 3 3 2 1 1 1 1 1 2 3 3 4 4 4 5 5 5 4 5 10 15 16 17 17 18 18 19
10 9 9 9 9 7 6 5 6 6 7 7 8 8 9 5 3 3 3 3 2 2 1 0 1 1 2 3 3 3 3 5 6 5 7 11 15 18 18 19 19 19 20
10 10 8 9 8 8 6 5 5 7 9 9 9 9 10 8 5 4 3 3 3 2 1 1 1 1 1 1 2 2 2 4 5 6 8 11 15 19 20 20 20 21 22
11 10 10 9 8 8 7 6 7 8 9 8 8 9 10 9 7 5 3 2 3 5 4 4 3 2 2 2 3 3 2 3 4 6 9 10 14 18 20 21 21 22 23
11 10 9 9 8 8 7 6 6 8 9 8 9 9 9 9 9 6 3 2 5 6 5 3 3 3 3 3 3 4 3 3 5 6 8 10 13 14 18 21 22 23 23
10 9 8 9 8 7 6 5 6 7 6 8 9 8 8 9 9 7 4 3 5 5 4 3 3 2 3 4 4 3 3 4 4 6 6 9 12 14 15 18 22 24 24
8 9 9 8 8 7 5 5 4 4 3 5 7 8 9 8 8 8 5 4 5 4 4 3 2 2 2 3 4 5 5 5 4 4 5 6 9 12 14 15 16 19 23
8 9 9 8 7 6 4 4 4 3 2 2 4 7 8 8 8 7 4 3 4 4 3 3 2 3 3 3 4 5 5 4 4 3 3 2 4 7 9 11 12 13 14
9 9 9 8 7 7 5 4 3 3 2 2 2 5 7 7 7 6 4 3 3 3 4 4 3 2 3 3 2 3 4 6 5 4 4 3 3 2 3 6 8 9 11
10 11 10 8 8 7 6 4 4 4 3 3 2 1 3 6 6 6 6 4 3 3 2 2 3 3 2 3 2 3 2 3 4 4 4 5 5 3 3 3 4 7 9
11 10 9 9 8 7 7 6 5 4 3 2 2 2 2 3 4 6 6 5 4 2 2 1 2 2 2 2 2 1 2 3 1 4 5 5 6 5 5 4 4 5 7
12 10 9 9 8 7 7 8 7 5 4 3 2 2 1 1 1 3 5 5 4 2 2 1 1 1 1 1 1 1 2 1 1 1 4 5 5 5 5 4 4 5 6
10 11 11 10 8 8 8 8 8 8 6 4 2 1 0 1 1 1 4 4 4 3 2 2 1 1 1 1 1 1 1 1 1 0 2 4 5 5 5 4 4 5 7
Wind_Direction
146 150 142 136 131 127 124 120 118 115 113 111 110 109 108 107 107 106 106 106 105 105 104 102 99 97 95 94 95 96 98 101 105 109 111 112 113 116 116 115 114 114 115
144 146 140 137 134 131 129 125 123 121 119 118 117 115 114 113 112 111 110 108 107 105 104 103 102 99 97 96 96 96 97 99 103 107 107 108 113 117 116 116 116 120 119
135 138 137 136 135 133 131 129 128 126 125 124 123 122 121 120 119 117 115 113 111 109 108 106 105 103 100 98 97 96 95 97 102 106 105 104 109 117 119 119 119 120 120
131 133 135 134 134 133 133 132 131 131 130 129 129 128 127 126 125 123 121 118 115 114 113 112 110 108 104 99 96 93 91 91 96 112 119 120 117 120 121 122 122 123 122
126 130 134 133 133 134 134 134 134 134 135 134 133 133 132 131 131 129 127 124 122 119 117 117 117 114 110 104 97 88 81 75 81 112 132 130 128 128 127 127 127 126 127
125 129 133 133 133 134 135 136 136 136 137 137 138 138 138 137 137 135 134 133 130 126 124 124 126 124 119 112 102 88 69 52 65 117 135 137 138 137 135 134 133 132 130
129 130 134 134 134 135 136 136 137 138 138 140 142 143 144 144 143 142 141 140 139 138 136 135 140 140 137 130 113 82 46 33 66 134 146 148 150 146 143 141 140 139 136
134 133 136 137 137 138 139 139 140 141 142 144 145 146 147 147 148 148 148 149 151 152 152 152 155 161 166 174 186 349 7 20 61 129 155 159 159 154 151 150 149 147 146
137 136 138 142 142 143 143 144 144 145 147 148 148 150 154 158 161 165 168 170 171 172 174 175 178 184 194 211 239 275 307 345 38 143 169 168 167 162 159 157 157 156 155
140 142 143 144 145 146 147 148 147 148 151 153 154 157 162 169 178 185 187 187 188 191 195 198 200 204 210 222 241 257 276 304 7 180 180 182 176 170 167 165 165 164 163
149 152 151 149 148 148 149 152 152 153 156 156 161 166 169 182 197 197 199 199 203 204 207 213 216 217 219 226 238 249 261 266 254 198 194 191 185 180 176 174 174 173 172
162 165 161 158 156 156 157 152 155 156 157 156 160 162 157 171 197 189 202 203 207 211 214 218 223 228 229 232 242 248 244 247 243 214 209 197 193 188 185 182 182 181 180
167 166 164 162 158 157 148 148 152 149 148 146 144 144 135 112 100 96 111 178 207 216 228 233 242 239 228 229 232 242 234 234 236 222 218 203 197 190 193 191 189 187 187
152 153 153 151 143 141 138 141 146 141 137 134 130 124 111 98 82 75 66 52 63 79 144 220 237 249 249 246 240 239 233 226 231 223 217 205 199 197 199 199 198 196 195
145 145 146 139 135 132 125 132 133 139 138 129 118 111 109 101 91 77 62 54 50 41 46 212 225 244 262 270 267 252 245 230 226 223 212 207 206 204 203 204 206 206 205
144 141 139 130 129 124 120 118 123 128 128 121 118 116 109 104 95 80 65 55 33 22 22 4 335 306 294 297 297 281 249 246 235 222 218 221 220 216 215 212 213 213 211
143 137 137 133 124 120 121 121 125 129 128 123 125 119 112 105 94 85 72 45 23 22 25 25 13 26 8 345 326 307 279 262 255 236 224 223 227 225 223 220 218 219 216
136 135 142 135 125 121 121 121 128 133 130 129 127 121 117 108 97 85 74 40 25 35 38 40 36 34 19 358 330 312 306 289 273 258 240 230 228 229 229 227 225 225 223
141 139 135 132 132 128 125 120 122 124 126 136 134 128 122 112 103 95 84 57 46 46 37 33 44 44 13 346 320 313 312 293 278 276 254 238 230 227 225 229 229 228 228
137 135 136 134 133 128 115 101 94 97 108 134 143 140 134 126 115 105 93 66 58 52 32 25 24 21 11 336 330 331 307 297 294 279 266 251 235 228 225 228 231 233 232
135 136 139 142 146 134 123 120 119 127 134 135 156 154 146 138 127 116 104 84 73 63 39 25 24 15 358 359 13 341 327 326 331 321 309 279 249 233 226 225 225 226 231
149 149 152 155 152 147 145 148 148 142 141 147 146 153 158 153 146 138 132 122 99 73 44 35 46 37 355 21 46 20 349 341 341 353 2 10 336 288 246 231 221 223 226
167 168 167 167 158 155 148 123 95 76 65 66 90 140 183 172 164 157 154 143 128 110 79 48 73 84 18 351 46 92 57 317 314 326 350 7 357 349 322 297 251 236 230
179 175 168 168 162 157 147 137 137 137 141 163 168 187 219 198 187 180 169 158 149 136 120 107 114 112 102 6 353 47 165 197 266 319 325 345 352 353 339 328 310 279 253
180 174 170 166 166 162 153 147 138 136 151 156 141 144 226 279 239 190 172 160 153 154 160 147 121 117 137 163 265 329 352 18 102 159 309 328 336 332 329 320 309 299 282
179 174 171 168 171 166 159 154 150 152 154 146 137 138 290 319 334 139 153 156 162 167 186 205 209 211 210 216 218 207 196 249 285 250 273 304 311 308 317 321 318 310 299
Height
1536 1539 1541 1543 1545 1546 1548 1549 1550 1552 1553 1554 1555 1556 1556 1557 1558 1558 1559 1559 1560 1560 1561 1561 1562 1562 1562 1562 1562 1563 1563 1563 1564 1564 1565 1565 1566 1566 1567 1567 1568 1568 1569
1534 1538 1542 1544 1545 1547 1549 1550 1551 1552 1553 1554 1555 1556 1557 1558 1558 1559 1560 1560 1561 1561 1562 1562 1562 1563 1563 1563 1563 1564 1564 1565 1565 1566 1566 1567 1568 1568 1569 1569 1570 1570 1571
1535 1539 1542 1544 1546 1548 1549 1551 1552 1553 1554 1555 1556 1557 1558 1558 1559 1560 1560 1561 1561 1562 1562 1563 1563 1564 1564 1564 1565 1565 1566 1566 1567 1568 1568 1569 1569 1570 1570 1571 1571 1572 1573
1536 1539 1543 1545 1547 1548 1550 1551 1552 1553 1554 1555 1556 1557 1558 1559 1560 1560 1561 1561 1562 1563 1563 1564 1564 1565 1565 1565 1566 1567 1567 1568 1568 1569 1570 1570 1571 1571 1572 1572 1573 1574 1575
1537 1541 1543 1546 1547 1549 1551 1552 1553 1554 1555 1556 1557 1558 1558 1559 1560 1561 1561 1562 1563 1563 1564 1565 1565 1566 1566 1567 1567 1568 1568 1569 1570 1570 1571 1571 1572 1573 1573 1574 1574 1575 1576
1538 1541 1544 1546 1548 1550 1551 1552 1553 1554 1555 1556 1557 1558 1559 1559 1560 1561 1562 1562 1563 1564 1565 1565 1566 1567 1567 1568 1568 1569 1569 1570 1570 1571 1572 1572 1573 1574 1574 1575 1575 1576 1577
1539 1542 1545 1547 1549 1550 1552 1553 1554 1555 1555 1556 1557 1558 1559 1560 1561 1561 1562 1563 1564 1564 1565 1566 1567 1567 1568 1568 1569 1570 1570 1571 1571 1572 1572 1573 1573 1574 1575 1575 1576 1577 1578
1541 1543 1545 1547 1549 1551 1552 1553 1554 1555 1556 1557 1557 1558 1559 1560 1561 1561 1562 1563 1564 1564 1565 1566 1567 1567 1568 1569 1569 1570 1571 1571 1571 1572 1573 1573 1574 1574 1575 1576 1577 1578 1579
1542 1544 1546 1548 1550 1551 1553 1554 1554 1555 1556 1557 1558 1559 1559 1560 1561 1561 1562 1563 1563 1564 1565 1566 1566 1567 1568 1568 1569 1570 1570 1571 1571 1572 1572 1573 1574 1575 1576 1577 1578 1578 1579
1544 1545 1547 1548 1550 1551 1552 1554 1554 1555 1557 1557 1558 1559 1559 1560 1560 1561 1562 1562 1563 1564 1564 1565 1565 1566 1567 1568 1568 1569 1570 1570 1571 1571 1572 1573 1574 1575 1576 1577 1578 1579 1580
1545 1546 1548 1549 1550 1551 1552 1553 1555 1556 1557 1558 1558 1559 1559 1560 1560 1560 1561 1561 1562 1563 1563 1564 1564 1565 1565 1566 1567 1568 1568 1569 1570 1570 1571 1572 1574 1575 1575 1576 1578 1579 1580
1545 1547 1548 1549 1550 1551 1552 1554 1554 1556 1557 1557 1558 1559 1559 1559 1559 1560 1560 1560 1561 1561 1562 1562 1563 1563 1564 1565 1565 1566 1567 1568 1568 1569 1570 1571 1572 1574 1575 1575 1577 1578 1580
1545 1547 1548 1549 1550 1551 1552 1553 1554 1555 1556 1557 1558 1558 1558 1559 1559 1559 1559 1559 1560 1560 1560 1560 1561 1561 1562 1562 1563 1564 1564 1565 1566 1567 1568 1569 1570 1572 1573 1574 1575 1577 1579
1544 1546 1547 1549 1549 1550 1552 1553 1554 1555 1556 1556 1557 1557 1558 1558 1558 1558 1558 1558 1558 1558 1558 1559 1559 1559 1560 1560 1561 1561 1562 1562 1563 1565 1566 1567 1567 1569 1571 1572 1573 1575 1577
1543 1545 1547 1548 1549 1550 1551 1552 1553 1554 1555 1555 1556 1556 1557 1557 1557 1557 1556 1556 1556 1556 1556 1557 1557 1557 1558 1558 1558 1558 1559 1560 1561 1562 1563 1564 1564 1566 1567 1568 1571 1572 1574
1543 1545 1547 1548 1549 1550 1551 1552 1553 1554 1554 1555 1555 1556 1556 1556 1555 1555 1555 1555 1555 1555 1555 1555 1554 1555 1555 1555 1555 1556 1556 1557 1558 1559 1559 1560 1561 1563 1564 1566 1567 1569 1571
1542 1544 1546 1548 1549 1550 1551 1552 1553 1554 1554 1554 1555 1555 1555 1555 1554 1554 1554 1554 1553 1553 1553 1553 1552 1552 1552 1552 1552 1552 1553 1553 1554 1555 1556 1557 1558 1559 1560 1562 1564 1566 1568
1541 1543 1545 1547 1548 1549 1550 1552 1552 1553 1554 1554 1554 1554 1554 1554 1554 1553 1552 1552 1552 1551 1551 1551 1550 1550 1550 1550 1549 1550 1550 1550 1551 1552 1552 1553 1554 1555 1557 1558 1560 1561 1564
1540 1542 1544 1546 1547 1549 1550 1551 1552 1553 1553 1553 1553 1554 1554 1553 1552 1552 1551 1550 1550 1550 1549 1549 1548 1548 1547 1547 1547 1547 1547 1547 1547 1548 1548 1549 1550 1551 1553 1554 1556 1557 1560
1539 1542 1544 1545 1547 1548 1549 1551 1551 1552 1552 1553 1553 1553 1553 1552 1551 1551 1550 1549 1548 1548 1547 1547 1546 1546 1546 1545 1544 1544 1544 1544 1544 1545 1545 1546 1547 1548 1549 1550 1552 1553 1555
1539 1541 1542 1545 1546 1548 1549 1550 1551 1551 1552 1552 1552 1552 1552 1551 1550 1550 1548 1547 1547 1546 1545 1545 1544 1544 1544 1543 1542 1542 1542 1542 1542 1542 1542 1542 1543 1545 1546 1547 1548 1549 1551
1538 1540 1542 1544 1546 1547 1548 1549 1550 1550 1551 1551 1551 1551 1550 1550 1549 1548 1547 1546 1545 1544 1543 1543 1543 1542 1542 1542 1541 1540 1540 1541 1540 1540 1540 1540 1541 1542 1543 1543 1544 1545 1547
1537 1539 1541 1543 1545 1546 1547 1548 1549 1549 1549 1549 1549 1549 1549 1548 1547 1547 1546 1545 1544 1543 1542 1542 1541 1541 1541 1541 1541 1541 1540 1539 1539 1539 1539 1539 1539 1539 1540 1540 1541 1542 1543
1536 1538 1540 1542 1543 1544 1545 1546 1547 1547 1547 1547 1547 1547 1547 1546 1546 1545 1544 1543 1543 1542 1541 1541 1540 1540 1539 1539 1539 1540 1540 1540 1539 1537 1537 1537 1537 1537 1537 1538 1538 1539 1539
1534 1536 1538 1540 1541 1542 1543 1544 1545 1545 1545 1545 1545 1545 1545 1544 1544 1543 1542 1542 1541 1541 1540 1539 1539 1538 1538 1537 1537 1538 1538 1538 1538 1537 1535 1535 1535 1536 1535 1535 1536 1536 1536
1532 1534 1536 1538 1539 1540 1541 1542 1542 1543 1543 1543 1543 1542 1542 1542 1541 1541 1541 1540 1540 1539 1538 1538 1537 1537 1536 1536 1536 1536 1536 1536 1536 1535 1534 1533 1532 1533 1533 1533 1533 1533 1533